GW6295 Weather Reports


time (UTC)temp
F
wind
direction
speed
knots
gust
knots
rain 1hr
in
rain 24hr
in
rain mn
in
humidity
%
barometer
mb
20260504205015 76 174 4.3 7.0 0.00 0.00 0.03 64 1004.0
20260504204512 76 185 6.1 7.8 0.00 0.00 0.03 64 1004.0
20260504204013 75 174 5.2 9.6 0.00 0.00 0.03 65 1004.0
20260504203512 74 188 1.7 3.5 0.00 0.00 0.03 68 1004.0
20260504203014 73 198 2.6 5.2 0.00 0.00 0.03 69 1004.0
20260504202513 72 201 5.2 7.8 0.00 0.00 0.03 69 1004.0
20260504202016 71 215 4.3 7.8 0.00 0.00 0.09 71 1004.0
20260504201513 70 170 7.8 10.4 0.00 0.00 0.09 75 1004.0
20260504201013 69 171 5.2 9.6 0.00 0.00 0.09 78 1004.0
20260504200515 67 207 6.1 8.7 0.00 0.00 0.08 79 1005.0
20260504200015 67 202 5.2 7.0 0.00 0.00 0.08 78 1005.0
20260504195514 67 219 5.2 8.7 0.00 0.00 0.08 80 1004.0
20260504195015 66 210 7.8 13.9 0.00 0.00 0.09 81 1003.0
20260504194513 66 188 7.0 10.4 0.11 0.00 0.06 84 1005.0
20260504194015 67 176 3.5 6.1 0.00 0.00 0.06 84 1005.0
20260504193515 67 196 3.5 5.2 0.00 0.00 0.07 81 1005.0
20260504193012 67 223 3.5 5.2 0.12 0.00 0.06 82 1005.0
20260504192513 67 156 3.5 5.2 0.48 0.00 0.05 82 1005.0
20260504192013 68 236 1.7 3.5 0.00 0.00 0.04 85 1005.0
20260504191513 69 136 0.9 1.7 0.01 0.00 0.04 75 1005.0
20260504191013 70 48 0.9 3.5 0.28 0.00 0.02 71 1006.0
20260504190514 70 347 1.7 2.6 0.17 0.00 0.01 70 1006.0
20260504190013 71 350 3.5 6.1 0.00 0.00 0.00 66 1006.0
20260504185515 72 2 5.2 7.0 0.00 0.00 0.00 64 1006.0
20260504185013 72 2 3.5 5.2 0.00 0.00 0.00 62 1006.0
20260504184514 73 330 1.7 2.6 0.00 0.00 0.00 65 1005.0
20260504184018 74 288 1.7 2.6 0.00 0.00 0.00 62 1006.0
20260504183517 75 90 0.0 1.7 0.00 0.00 0.00 56 1005.0
20260504183014 75 83 0.0 1.7 0.00 0.00 0.00 55 1006.0
20260504182515 75 132 1.7 4.3 0.00 0.00 0.00 55 1006.0
20260504182015 75 216 1.7 3.5 0.00 0.00 0.00 55 1006.0
20260504181514 76 197 2.6 4.3 0.00 0.00 0.00 54 1006.0
20260504181013 76 185 3.5 5.2 0.00 0.00 0.00 54 1006.0
20260504180513 77 205 3.5 6.1 0.00 0.00 0.00 53 1006.0
20260504180013 78 192 7.0 10.4 0.00 0.00 0.00 52 1005.0
20260504175512 78 199 5.2 10.4 0.00 0.00 0.00 52 1006.0
20260504175015 78 217 5.2 9.6 0.00 0.00 0.00 53 1006.0
20260504174513 77 179 4.3 8.7 0.00 0.00 0.00 52 1006.0
20260504174016 76 134 3.5 6.1 0.00 0.00 0.00 56 1006.0
20260504173514 75 157 6.1 7.8 0.00 0.00 0.00 55 1006.0
20260504173013 75 144 3.5 6.1 0.00 0.00 0.00 54 1006.0
20260504172517 75 152 3.5 7.8 0.00 0.00 0.00 53 1006.0
20260504172014 73 138 2.6 5.2 0.00 0.00 0.00 56 1006.0
20260504171513 71 150 4.3 7.8 0.00 0.00 0.00 61 1006.0
20260504171012 69 143 1.7 4.3 0.00 0.00 0.00 64 1007.0
20260504170513 68 155 2.6 3.5 0.00 0.00 0.00 66 1007.0
20260504151017 69 51 0.9 1.7 0.00 0.00 0.00 64 1008.0
20260504150516 70 205 0.0 0.0 0.00 0.00 0.00 64 1008.0
20260504141017 69 150 2.6 5.2 0.00 0.00 0.00 64 1008.0
20260504140517 68 176 1.7 4.3 0.00 0.00 0.00 65 1008.0
20260504130517 65 156 1.7 4.3 0.00 0.00 0.00 71 1009.0
20260504110514 56 0 0.0 0.0 0.00 0.00 0.00 86 1009.0
20260504100514 60 190 1.7 1.7 0.00 0.00 0.00 76 1008.0
20260504081515 61 191 0.9 1.7 0.00 0.00 0.00 72 1008.0
20260504081015 61 173 0.9 1.7 0.00 0.00 0.00 72 1008.0
20260504080516 61 0 0.0 0.0 0.00 0.00 0.00 72 1008.0
20260504050514 65 205 6.1 8.7 0.00 0.00 0.00 61 1008.0
20260504050014 65 217 4.3 7.8 0.00 0.00 0.00 60 1008.0
20260504045512 66 214 5.2 7.8 0.00 0.00 0.00 60 1008.0
20260504045014 66 212 5.2 7.0 0.00 0.00 0.00 60 1009.0
20260504044512 66 211 6.1 7.8 0.00 0.00 0.00 60 1009.0
20260504044013 66 208 4.3 6.1 0.00 0.00 0.00 59 1009.0
20260504043512 66 222 5.2 7.0 0.00 0.00 0.00 59 1009.0
20260504043013 66 217 6.1 9.6 0.00 0.00 0.00 59 1009.0
20260504042514 66 219 4.3 7.0 0.00 0.00 0.00 58 1009.0
20260504042014 67 213 4.3 5.2 0.00 0.00 0.00 58 1009.0
20260504041513 67 222 6.1 9.6 0.00 0.00 0.00 58 1009.0
20260504041012 67 221 5.2 9.6 0.00 0.00 0.00 58 1009.0
20260504040513 67 228 5.2 6.1 0.00 0.00 0.00 57 1010.0
20260504040012 67 220 4.3 7.8 0.00 0.00 0.00 57 1010.0
20260504035512 67 218 5.2 7.8 0.00 0.00 0.00 56 1010.0
20260504035012 67 223 6.1 11.3 0.00 0.00 0.00 56 1010.0
20260504034515 67 216 7.0 9.6 0.00 0.00 0.00 56 1010.0
20260504034013 67 226 2.6 7.8 0.00 0.00 0.00 56 1010.0
20260504033513 67 226 6.1 7.8 0.00 0.00 0.00 55 1010.0
20260504033013 67 228 2.6 3.5 0.00 0.00 0.00 55 1010.0
20260504032512 67 216 4.3 7.0 0.00 0.00 0.00 55 1010.0
20260504032013 67 222 5.2 7.8 0.00 0.00 0.00 55 1010.0
20260504031514 67 215 6.1 7.8 0.00 0.00 0.00 55 1010.0
20260504031015 67 218 5.2 8.7 0.00 0.00 0.00 55 1010.0
20260504030513 67 216 5.2 7.8 0.00 0.00 0.00 54 1010.0
20260504030013 67 221 5.2 6.1 0.00 0.00 0.00 54 1010.0
20260504025513 68 216 5.2 7.8 0.00 0.00 0.00 54 1010.0
20260504025012 68 207 3.5 5.2 0.00 0.00 0.00 53 1010.0
20260504024513 68 211 4.3 6.1 0.00 0.00 0.00 53 1010.0
20260504024013 68 209 6.1 7.8 0.00 0.00 0.00 52 1010.0
20260504023513 68 210 4.3 7.8 0.00 0.00 0.00 53 1010.0
20260504023013 68 204 3.5 4.3 0.00 0.00 0.00 52 1010.0
20260504022512 69 205 3.5 7.0 0.00 0.00 0.00 52 1010.0
20260504022014 69 206 5.2 7.8 0.00 0.00 0.00 51 1010.0
20260504021513 69 199 3.5 4.3 0.00 0.00 0.00 51 1010.0
20260504021013 69 199 5.2 6.1 0.00 0.00 0.00 51 1010.0
20260504020513 69 194 4.3 6.1 0.00 0.00 0.00 51 1010.0
20260504020013 69 205 3.5 4.3 0.00 0.00 0.00 51 1010.0
20260504015512 69 202 3.5 6.1 0.00 0.00 0.00 50 1009.0
20260504015013 70 214 5.2 7.8 0.00 0.00 0.00 49 1009.0
20260504014512 70 214 3.5 5.2 0.00 0.00 0.00 49 1009.0
20260504014013 70 205 3.5 7.0 0.00 0.00 0.00 49 1009.0
20260504013512 70 203 4.3 7.0 0.00 0.00 0.00 48 1009.0
20260504013013 71 207 4.3 7.8 0.00 0.00 0.00 48 1009.0
20260504012513 71 210 3.5 5.2 0.00 0.00 0.00 48 1009.0
20260504012012 71 207 2.6 3.5 0.00 0.00 0.00 47 1009.0
20260504011512 71 205 3.5 7.8 0.00 0.00 0.00 47 1009.0
20260504011012 72 210 2.6 3.5 0.00 0.00 0.00 47 1009.0
20260504010513 72 203 4.3 5.2 0.00 0.00 0.00 46 1009.0
20260504010012 72 206 3.5 7.0 0.00 0.00 0.00 46 1009.0
20260504005514 73 207 2.6 3.5 0.00 0.00 0.00 45 1009.0
20260504005012 73 216 4.3 7.8 0.00 0.00 0.00 45 1009.0
20260504004512 73 209 3.5 4.3 0.00 0.00 0.00 44 1009.0
20260504004013 74 226 3.5 5.2 0.00 0.00 0.00 44 1009.0
20260504003512 74 222 5.2 7.8 0.00 0.00 0.00 43 1009.0
20260504003013 74 218 3.5 6.1 0.00 0.00 0.00 43 1009.0
20260504002512 74 220 5.2 7.0 0.00 0.00 0.00 43 1009.0
20260504002012 74 207 3.5 3.5 0.00 0.00 0.00 43 1009.0
20260504001512 74 214 3.5 5.2 0.00 0.00 0.00 42 1009.0
20260504001012 75 206 1.7 4.3 0.00 0.00 0.00 42 1009.0
20260504000513 75 222 3.5 7.0 0.00 0.00 0.00 42 1009.0
20260504000012 75 224 5.2 7.8 0.00 0.00 0.00 41 1009.0
20260503235512 75 213 2.6 6.1 0.00 0.00 0.00 42 1009.0
20260503235012 75 220 6.1 8.7 0.00 0.00 0.00 41 1009.0
20260503234515 75 233 2.6 5.2 0.00 0.00 0.00 40 1009.0
20260503234013 75 231 2.6 7.0 0.00 0.00 0.00 41 1010.0
20260503233512 76 207 5.2 7.8 0.00 0.00 0.00 40 1009.0
20260503233012 76 216 4.3 7.0 0.00 0.00 0.00 39 1010.0
20260503232512 76 233 1.7 5.2 0.00 0.00 0.00 39 1009.0
20260503232013 76 226 2.6 4.3 0.00 0.00 0.00 38 1010.0
20260503231512 77 221 4.3 9.6 0.00 0.00 0.00 38 1010.0
20260503231013 77 229 0.9 2.6 0.00 0.00 0.00 38 1010.0
20260503230513 77 210 0.9 2.6 0.00 0.00 0.00 37 1010.0
20260503230014 77 229 3.5 5.2 0.00 0.00 0.00 37 1010.0
20260503225512 77 131 1.7 3.5 0.00 0.00 0.00 39 1010.0
20260503225014 77 218 3.5 8.7 0.00 0.00 0.00 37 1010.0
20260503224512 77 240 3.5 7.0 0.00 0.00 0.00 36 1010.0
20260503224012 77 232 4.3 8.7 0.00 0.00 0.00 36 1010.0
20260503223513 77 216 3.5 7.0 0.00 0.00 0.00 36 1010.0
20260503223013 77 251 0.9 3.5 0.00 0.00 0.00 37 1010.0
20260503222512 77 215 6.1 9.6 0.00 0.00 0.00 35 1010.0
20260503222012 77 215 3.5 6.1 0.00 0.00 0.00 35 1010.0
20260503221513 77 222 2.6 5.2 0.00 0.00 0.00 36 1010.0
20260503221013 77 232 6.1 9.6 0.00 0.00 0.00 35 1010.0
20260503220512 77 224 7.0 13.9 0.00 0.00 0.00 35 1010.0
20260503220013 77 207 5.2 8.7 0.00 0.00 0.00 35 1010.0
20260503215512 77 219 3.5 9.6 0.00 0.00 0.00 35 1010.0
20260503215012 76 216 4.3 7.0 0.00 0.00 0.00 35 1010.0
20260503214512 76 224 5.2 8.7 0.00 0.00 0.00 35 1010.0
20260503214012 76 207 5.2 7.8 0.00 0.00 0.00 35 1010.0
20260503213512 76 216 5.2 10.4 0.00 0.00 0.00 35 1010.0
20260503213013 76 230 5.2 7.8 0.00 0.00 0.00 36 1010.0
20260503212512 76 228 7.8 15.6 0.00 0.00 0.00 35 1010.0
20260503212013 76 227 7.8 13.9 0.00 0.00 0.00 35 1010.0
20260503211512 76 213 2.6 6.1 0.00 0.00 0.00 37 1010.0
20260503211013 76 232 4.3 7.8 0.00 0.00 0.00 36 1010.0
20260503210512 76 220 5.2 9.6 0.00 0.00 0.00 36 1011.0
20260503210012 76 213 8.7 11.3 0.00 0.00 0.00 35 1011.0
20260503205512 76 215 5.2 7.8 0.00 0.00 0.00 36 1011.0